DL5TW-13 Weather Reports


Display with metric or nautical units.
time (UTC)temp
F
wind
direction
speed
MPH
gust
MPH
rain 1hr
in
rain 24hr
in
rain mn
in
humidity
%
barometer
mb
20260509023955 36 157 0.0 0.0 0.00 0.00 0.00 89 1014.9
20260509023455 36 157 0.0 0.0 0.00 0.00 0.00 89 1014.7
20260509022954 37 157 0.0 0.0 0.00 0.00 0.00 89 1014.7
20260509022454 37 157 0.0 0.0 0.00 0.00 0.00 89 1014.7
20260509021954 37 157 0.0 0.0 0.00 0.00 0.00 89 1014.7
20260509021453 37 157 0.0 0.0 0.00 0.00 0.00 89 1014.8
20260509020953 37 157 0.0 0.0 0.00 0.00 0.00 89 1014.6
20260509020453 37 157 0.0 0.0 0.00 0.00 0.00 89 1014.5
20260509015953 37 157 0.0 0.0 0.00 0.00 0.00 89 1014.5
20260509015452 37 157 0.0 0.0 0.00 0.00 0.00 89 1014.7
20260509014952 37 157 0.0 0.0 0.00 0.00 0.00 89 1014.7
20260509014452 37 157 0.0 0.0 0.00 0.00 0.00 89 1014.6
20260509013951 37 157 0.0 0.0 0.00 0.00 0.00 89 1014.6
20260509013451 38 157 0.0 0.0 0.00 0.00 0.00 88 1014.6
20260509012951 38 157 0.0 0.0 0.00 0.00 0.00 88 1014.8
20260509012451 38 157 0.0 0.0 0.00 0.00 0.00 88 1014.7
20260509011950 38 157 0.0 0.0 0.00 0.00 0.00 88 1014.7
20260509011450 38 157 0.0 0.0 0.00 0.00 0.00 88 1014.7
20260509010950 38 157 0.0 0.0 0.00 0.00 0.00 88 1014.7
20260509010449 38 157 0.0 0.0 0.00 0.00 0.00 88 1014.8
20260509005949 39 157 0.0 0.0 0.00 0.00 0.00 88 1014.6
20260509005449 39 157 0.0 0.0 0.00 0.00 0.00 88 1014.7
20260509004949 39 157 0.0 0.0 0.00 0.00 0.00 88 1014.6
20260509004448 39 157 0.0 0.0 0.00 0.00 0.00 88 1014.6
20260509003948 39 157 0.0 0.0 0.00 0.00 0.00 88 1014.6
20260509003448 40 157 0.0 0.0 0.00 0.00 0.00 88 1014.7
20260509002947 40 157 0.0 0.0 0.00 0.00 0.00 88 1014.6
20260509002447 40 157 0.0 0.0 0.00 0.00 0.00 87 1014.7
20260509001947 40 157 0.0 0.0 0.00 0.00 0.00 87 1014.7
20260509001447 41 157 0.0 0.0 0.00 0.00 0.00 87 1014.8
20260509000946 41 157 0.0 0.0 0.00 0.00 0.00 87 1014.8
20260509000447 41 157 0.0 0.0 0.00 0.00 0.00 87 1014.7
20260508235946 42 157 0.0 0.0 0.00 0.00 0.00 87 1014.9
20260508235445 42 157 0.0 0.0 0.00 0.00 0.00 87 1014.8
20260508234945 42 157 0.0 0.0 0.00 0.00 0.00 87 1014.9
20260508234445 42 157 0.0 0.0 0.00 0.00 0.00 87 1014.7
20260508233945 43 157 0.0 0.0 0.00 0.00 0.00 87 1014.8
20260508233444 43 157 0.0 0.0 0.00 0.00 0.00 87 1014.7
20260508232944 44 157 0.0 0.0 0.00 0.00 0.00 87 1014.8
20260508232444 44 157 0.0 0.0 0.00 0.00 0.00 87 1014.7
20260508231943 44 135 0.0 0.0 0.00 0.00 0.00 87 1014.7
20260508231443 44 135 0.0 0.0 0.00 0.00 0.00 87 1014.7
20260508230943 44 135 0.0 0.0 0.00 0.00 0.00 86 1014.7
20260508230443 44 135 0.0 0.0 0.00 0.00 0.00 86 1014.7
20260508225942 45 112 0.0 0.0 0.00 0.00 0.00 86 1014.9
20260508225442 45 112 0.0 0.0 0.00 0.00 0.00 86 1014.7
20260508224942 45 67 0.0 0.0 0.00 0.00 0.00 86 1014.8
20260508224441 46 67 0.0 0.0 0.00 0.00 0.00 86 1014.7
20260508223941 46 67 0.0 0.0 0.00 0.00 0.00 86 1014.7
20260508223441 46 67 0.0 0.0 0.00 0.00 0.00 86 1014.9
20260508222941 46 67 0.0 0.0 0.00 0.00 0.00 86 1015.0
20260508222440 46 67 0.0 0.0 0.00 0.00 0.00 86 1014.9
20260508221940 46 90 0.0 0.0 0.00 0.00 0.00 86 1014.9
20260508221440 46 112 0.0 0.0 0.00 0.00 0.00 86 1015.0
20260508220939 46 112 0.0 0.0 0.00 0.00 0.00 86 1015.1
20260508220439 46 112 0.0 0.0 0.00 0.00 0.00 86 1014.9
20260508215939 47 67 0.0 0.0 0.00 0.00 0.00 86 1014.9
20260508215439 47 67 0.0 0.0 0.00 0.00 0.00 86 1015.0
20260508214938 47 135 0.0 0.0 0.00 0.00 0.00 86 1014.9
20260508214438 47 90 0.0 0.0 0.00 0.00 0.00 86 1014.9
20260508213938 47 90 0.0 0.0 0.00 0.00 0.00 85 1015.2
20260508213437 47 90 0.0 1.0 0.00 0.00 0.00 85 1014.9
20260508212937 48 112 0.0 0.0 0.00 0.00 0.00 85 1014.9
20260508212437 48 112 0.0 0.0 0.00 0.00 0.00 85 1015.0
20260508211937 48 90 0.0 0.0 0.00 0.00 0.00 85 1014.9
20260508211436 48 112 0.0 0.0 0.00 0.00 0.00 85 1015.0
20260508210936 48 157 0.0 0.0 0.00 0.00 0.00 85 1014.9
20260508210436 48 67 0.0 0.0 0.00 0.00 0.00 85 1015.0
20260508205935 48 67 0.0 0.0 0.00 0.00 0.00 84 1015.1
20260508205435 48 112 0.0 0.0 0.00 0.00 0.00 84 1015.1
20260508204935 48 90 0.0 0.0 0.00 0.00 0.00 84 1015.1
20260508204434 48 90 0.0 0.0 0.00 0.00 0.00 84 1015.1
20260508203934 48 90 0.0 0.0 0.00 0.00 0.00 84 1015.1
20260508203434 48 112 0.0 0.0 0.00 0.00 0.00 84 1015.1
20260508202934 48 90 0.0 0.0 0.00 0.00 0.00 84 1015.1
20260508202433 48 67 0.0 0.0 0.00 0.00 0.00 84 1015.0
20260508201933 48 67 0.0 0.0 0.00 0.00 0.00 84 1015.1
20260508201433 48 67 0.0 0.0 0.00 0.00 0.00 84 1015.2
20260508200932 48 67 0.0 0.0 0.00 0.00 0.00 84 1015.1
20260508200432 48 67 0.0 0.0 0.00 0.00 0.00 84 1015.1
20260508195932 48 45 0.0 0.0 0.00 0.00 0.00 84 1015.1
20260508195432 48 45 0.0 0.0 0.00 0.00 0.00 83 1015.1
20260508194931 48 45 0.0 0.0 0.00 0.00 0.00 83 1015.1
20260508194431 48 45 0.0 0.0 0.00 0.00 0.00 83 1014.9
20260508193931 48 45 0.0 0.0 0.00 0.00 0.00 83 1014.9
20260508193430 48 67 0.0 0.0 0.00 0.00 0.00 83 1015.0
20260508192930 48 67 0.0 0.0 0.00 0.00 0.00 83 1014.9
20260508192430 48 45 0.0 0.0 0.00 0.00 0.00 83 1015.0
20260508191930 48 67 0.0 0.0 0.00 0.00 0.00 83 1014.9
20260508191429 48 67 0.0 0.0 0.00 0.00 0.00 82 1014.9
20260508190929 48 67 0.0 0.0 0.00 0.00 0.00 82 1014.8
20260508190429 48 67 0.0 0.0 0.00 0.00 0.00 82 1014.7
20260508185928 48 67 0.0 0.0 0.00 0.00 0.00 82 1014.7
20260508185428 48 67 0.0 0.0 0.00 0.00 0.00 82 1014.7
20260508184928 48 45 0.0 0.0 0.00 0.00 0.00 81 1014.6
20260508184428 48 67 0.0 3.0 0.00 0.00 0.00 81 1014.4
20260508183927 48 45 3.0 3.0 0.00 0.00 0.00 80 1014.5
20260508183427 49 67 0.0 0.0 0.00 0.00 0.00 80 1014.3
20260508182927 49 67 0.0 0.0 0.00 0.00 0.00 79 1014.4
20260508182426 50 67 0.0 0.0 0.00 0.00 0.00 79 1014.3
20260508181926 50 45 0.0 0.0 0.00 0.00 0.00 78 1014.2
20260508181426 50 90 0.0 2.0 0.00 0.00 0.00 78 1014.2
20260508180926 50 67 0.0 1.0 0.00 0.00 0.00 77 1014.1
20260508180425 50 67 1.0 2.0 0.00 0.00 0.00 77 1014.0
20260508175925 50 45 2.0 2.0 0.00 0.00 0.00 77 1014.1
20260508175425 51 45 0.0 0.0 0.00 0.00 0.00 76 1014.1
20260508174924 51 67 0.0 0.0 0.00 0.00 0.00 76 1014.1
20260508174424 51 67 0.0 0.0 0.00 0.00 0.00 75 1014.0
20260508173924 51 67 0.0 1.0 0.00 0.00 0.00 75 1014.0
20260508173424 52 67 1.0 2.0 0.00 0.00 0.00 74 1014.0
20260508172923 52 45 0.0 2.0 0.00 0.00 0.00 72 1013.9
20260508172423 53 67 2.0 2.0 0.00 0.00 0.00 71 1013.8
20260508171923 53 67 0.0 5.0 0.00 0.00 0.00 71 1013.8
20260508171422 55 67 5.0 5.0 0.00 0.00 0.00 68 1013.8
20260508170922 57 67 0.0 2.0 0.00 0.00 0.00 67 1013.9
20260508170422 57 67 0.0 2.0 0.00 0.00 0.00 67 1013.7
20260508165922 56 67 1.0 7.0 0.00 0.00 0.00 71 1013.7
20260508165421 55 67 6.0 6.0 0.00 0.00 0.00 73 1013.7
20260508164921 54 67 2.0 2.0 0.00 0.00 0.00 72 1013.8
20260508164421 54 67 1.0 1.0 0.00 0.00 0.00 72 1013.7
20260508163920 54 67 0.0 3.0 0.00 0.00 0.00 72 1013.7
20260508163420 54 90 1.0 1.0 0.00 0.00 0.00 72 1013.8
20260508162920 54 112 0.0 0.0 0.00 0.00 0.00 72 1013.7
20260508162420 54 45 0.0 1.0 0.00 0.00 0.00 72 1013.7
20260508161919 53 67 0.0 3.0 0.00 0.00 0.00 71 1013.8
20260508161419 54 67 3.0 3.0 0.00 0.00 0.00 71 1013.7
20260508160919 54 67 0.0 2.0 0.00 0.00 0.00 70 1013.7
20260508160418 54 67 0.0 0.0 0.00 0.00 0.00 70 1013.7
20260508155918 54 67 0.0 0.0 0.00 0.00 0.00 70 1013.7
20260508155418 54 67 0.0 0.0 0.00 0.00 0.00 69 1013.9
20260508154918 54 67 0.0 0.0 0.00 0.00 0.00 69 1013.7
20260508154417 54 67 0.0 2.0 0.00 0.00 0.00 69 1013.8
20260508153917 55 67 2.0 2.0 0.00 0.00 0.00 68 1013.9
20260508153417 55 67 0.0 0.0 0.00 0.00 0.00 68 1013.7
20260508152916 55 67 0.0 0.0 0.00 0.00 0.00 68 1013.8
20260508152416 55 67 0.0 0.0 0.00 0.00 0.00 67 1013.8
20260508151916 56 67 0.0 0.0 0.00 0.00 0.00 67 1013.9
20260508151416 56 90 0.0 1.0 0.00 0.00 0.00 67 1013.8
20260508150915 56 45 1.0 1.0 0.00 0.00 0.00 68 1013.7
20260508150415 56 45 1.0 1.0 0.00 0.00 0.00 68 1013.7
20260508145915 55 90 0.0 0.0 0.00 0.02 0.00 68 1013.8
20260508145414 55 67 0.0 1.0 0.00 0.02 0.00 68 1013.8
20260508144914 55 67 1.0 1.0 0.00 0.02 0.00 68 1013.9
20260508144414 55 67 1.0 2.0 0.00 0.02 0.00 68 1013.8
20260508143913 55 67 2.0 3.0 0.00 0.02 0.00 68 1013.9
20260508143413 55 45 2.0 2.0 0.00 0.02 0.00 68 1013.9
20260508142913 54 67 0.0 0.0 0.00 0.02 0.00 69 1013.8
20260508142413 54 112 0.0 6.0 0.00 0.02 0.00 69 1013.9
20260508141912 54 67 6.0 6.0 0.00 0.02 0.00 69 1013.9
20260508141412 54 90 0.0 5.0 0.00 0.02 0.00 68 1013.9
20260508140912 54 45 3.0 5.0 0.00 0.02 0.00 68 1014.0
20260508140411 55 67 5.0 6.0 0.00 0.02 0.00 67 1014.0
20260508135911 56 45 6.0 6.0 0.00 0.04 0.00 66 1014.0
20260508135411 56 67 4.0 4.0 0.00 0.04 0.00 65 1014.1
20260508134911 57 67 3.0 5.0 0.00 0.04 0.00 64 1014.1
20260508134410 57 67 5.0 5.0 0.00 0.04 0.00 64 1014.1
20260508133910 57 45 4.0 4.0 0.00 0.04 0.00 64 1014.1
20260508133410 57 67 0.0 3.0 0.00 0.04 0.00 64 1014.1
20260508132909 57 90 0.0 5.0 0.00 0.04 0.00 64 1014.1
20260508132409 57 112 0.0 1.0 0.00 0.04 0.00 64 1014.1
20260508131909 56 90 0.0 6.0 0.00 0.04 0.00 64 1014.0
20260508131409 56 90 6.0 6.0 0.00 0.04 0.00 64 1014.0
20260508130908 56 67 2.0 2.0 0.00 0.04 0.00 65 1014.0
20260508130408 56 45 2.0 4.0 0.00 0.04 0.00 64 1014.1
20260508125908 57 112 0.0 5.0 0.00 0.06 0.00 64 1014.0
20260508125407 57 67 5.0 5.0 0.00 0.06 0.00 63 1014.0
20260508124907 57 90 0.0 0.0 0.00 0.06 0.00 62 1014.1
20260508124407 57 112 0.0 0.0 0.00 0.06 0.00 61 1013.9
20260508123907 58 112 0.0 0.0 0.00 0.06 0.00 61 1014.0
20260508123406 58 90 0.0 0.0 0.00 0.06 0.00 60 1014.0
20260508122906 58 90 0.0 0.0 0.00 0.06 0.00 60 1014.0
20260508122406 59 112 0.0 0.0 0.00 0.06 0.00 60 1014.0
20260508121905 59 112 0.0 0.0 0.00 0.06 0.00 60 1013.9
20260508121405 60 67 0.0 0.0 0.00 0.06 0.00 60 1014.1
20260508120905 60 45 0.0 0.0 0.00 0.06 0.00 59 1013.9
20260508120405 61 67 0.0 4.0 0.00 0.06 0.00 59 1013.9
20260508115904 61 112 4.0 4.0 0.00 0.06 0.00 60 1013.9
20260508115404 60 112 0.0 1.0 0.00 0.06 0.00 62 1014.0
20260508114904 60 90 1.0 1.0 0.00 0.06 0.00 62 1013.9
20260508114403 59 112 0.0 0.0 0.00 0.06 0.00 64 1014.1
20260508113903 58 90 0.0 2.0 0.00 0.06 0.00 64 1014.0
20260508113403 58 202 2.0 2.0 0.00 0.06 0.00 65 1013.9
20260508112903 57 112 0.0 0.0 0.00 0.06 0.00 65 1014.0
20260508112402 57 112 0.0 0.0 0.00 0.06 0.00 67 1014.1
20260508111902 56 112 0.0 0.0 0.00 0.06 0.00 66 1014.1
20260508111402 56 112 0.0 0.0 0.00 0.06 0.00 66 1014.0
20260508110901 57 112 0.0 0.0 0.00 0.06 0.00 67 1014.0
20260508110401 56 112 0.0 0.0 0.00 0.06 0.00 68 1014.0
20260508105901 56 90 0.0 0.0 0.00 0.08 0.00 67 1013.9
20260508105401 57 90 0.0 0.0 0.00 0.08 0.00 67 1013.9
20260508104900 57 90 0.0 0.0 0.00 0.08 0.00 68 1014.0
20260508104400 57 157 0.0 0.0 0.00 0.08 0.00 69 1014.0
20260508103900 57 67 0.0 0.0 0.00 0.08 0.00 70 1014.0
20260508103359 57 67 0.0 0.0 0.00 0.08 0.00 71 1014.1
20260508102859 56 112 0.0 0.0 0.00 0.08 0.00 72 1014.0
20260508102359 55 45 0.0 0.0 0.00 0.08 0.00 73 1014.1
20260508101859 54 112 0.0 0.0 0.00 0.08 0.00 74 1014.1
20260508101358 54 90 0.0 0.0 0.00 0.08 0.00 74 1014.0
20260508100858 53 67 0.0 0.0 0.00 0.08 0.00 75 1014.0
20260508100358 52 292 0.0 2.0 0.00 0.08 0.00 75 1014.0
20260508095857 52 67 0.0 0.0 0.00 0.08 0.00 76 1014.2
20260508095357 52 112 0.0 0.0 0.00 0.08 0.00 76 1014.4
20260508094857 51 112 0.0 0.0 0.00 0.08 0.00 77 1014.3
20260508094357 51 67 0.0 0.0 0.00 0.08 0.00 77 1014.3
20260508093856 51 45 0.0 2.0 0.00 0.08 0.00 78 1014.3
20260508093356 51 67 0.0 0.0 0.00 0.08 0.00 79 1014.2
20260508092856 51 67 0.0 0.0 0.00 0.08 0.00 79 1014.2
20260508092355 51 45 0.0 2.0 0.00 0.08 0.00 79 1014.2
20260508091855 50 67 0.0 2.0 0.00 0.08 0.00 79 1014.2
20260508091355 50 45 2.0 2.0 0.00 0.08 0.00 80 1014.3
20260508090855 50 67 0.0 4.0 0.00 0.08 0.00 79 1014.4
20260508090354 50 45 3.0 3.0 0.00 0.08 0.00 79 1014.4
20260508085854 51 90 0.0 3.0 0.00 0.10 0.00 79 1014.3
20260508085354 51 112 0.0 3.0 0.00 0.10 0.00 80 1014.3
20260508084853 51 112 0.0 2.0 0.00 0.10 0.00 80 1014.3
20260508084353 51 90 2.0 2.0 0.00 0.10 0.00 81 1014.2
20260508083853 50 135 0.0 2.0 0.00 0.10 0.00 82 1014.3
20260508083353 50 67 2.0 2.0 0.00 0.10 0.00 82 1014.4
20260508082852 50 67 0.0 0.0 0.00 0.10 0.00 83 1014.3
20260508082352 49 90 0.0 2.0 0.00 0.10 0.00 83 1014.2
20260508081852 49 67 2.0 2.0 0.00 0.10 0.00 84 1014.1
20260508081351 49 67 0.0 3.0 0.00 0.10 0.00 84 1014.1
20260508080851 49 67 3.0 3.0 0.00 0.10 0.00 84 1014.1
20260508080351 48 90 0.0 5.0 0.00 0.10 0.00 84 1014.0
20260508075850 48 67 5.0 5.0 0.00 0.10 0.00 84 1014.1
20260508075350 48 67 5.0 5.0 0.00 0.10 0.00 85 1014.1
20260508074850 48 67 1.0 1.0 0.00 0.10 0.00 85 1013.9
20260508074350 48 90 1.0 5.0 0.00 0.10 0.00 85 1013.9
20260508073849 48 45 5.0 5.0 0.00 0.10 0.00 85 1013.8
20260508073349 48 67 0.0 2.0 0.00 0.10 0.00 86 1013.7
20260508072849 48 67 2.0 2.0 0.00 0.10 0.00 86 1013.8
20260508072349 48 67 0.0 3.0 0.00 0.10 0.00 85 1013.9
20260508071848 48 90 3.0 3.0 0.00 0.10 0.00 85 1013.8
20260508071348 49 45 2.0 2.0 0.00 0.10 0.00 85 1013.6
20260508070848 50 67 1.0 1.0 0.00 0.10 0.00 85 1013.6
20260508070347 50 112 0.0 0.0 0.00 0.10 0.00 85 1013.8
20260508065847 50 112 0.0 0.0 0.00 0.12 0.00 87 1013.7
20260508065347 50 67 0.0 0.0 0.00 0.12 0.00 87 1013.6
20260508064847 50 112 0.0 0.0 0.00 0.12 0.00 88 1013.5
20260508064346 49 67 0.0 0.0 0.00 0.12 0.00 88 1013.5
20260508063846 48 112 0.0 0.0 0.00 0.12 0.00 89 1013.4
20260508063346 48 67 0.0 0.0 0.00 0.12 0.00 90 1013.4
20260508062845 48 67 0.0 0.0 0.00 0.12 0.00 90 1013.4
20260508062345 47 67 0.0 0.0 0.00 0.12 0.00 91 1013.4
20260508061845 47 112 0.0 0.0 0.00 0.12 0.00 91 1013.3
20260508061344 47 45 0.0 0.0 0.00 0.12 0.00 91 1013.2
20260508060844 46 90 0.0 0.0 0.00 0.12 0.00 91 1013.1
20260508060344 46 112 0.0 0.0 0.00 0.12 0.00 91 1013.3
20260508055844 46 112 0.0 0.0 0.00 0.16 0.00 92 1013.2
20260508055343 46 90 0.0 0.0 0.00 0.16 0.00 92 1013.0
20260508054843 45 90 0.0 0.0 0.00 0.16 0.00 92 1013.1
20260508054343 45 90 0.0 0.0 0.00 0.16 0.00 92 1013.0
20260508053842 45 67 0.0 0.0 0.00 0.16 0.00 92 1012.9
20260508053342 45 90 0.0 0.0 0.00 0.16 0.00 92 1012.9
20260508052842 45 45 0.0 0.0 0.00 0.16 0.00 92 1012.8
20260508052342 45 45 0.0 0.0 0.00 0.16 0.00 92 1012.7
20260508051841 45 67 0.0 1.0 0.00 0.16 0.00 92 1012.6
20260508051341 45 67 1.0 1.0 0.00 0.16 0.00 92 1012.9
20260508050841 45 45 0.0 0.0 0.00 0.16 0.00 92 1012.8
20260508050341 45 45 0.0 0.0 0.00 0.16 0.00 92 1012.7
20260508045840 45 67 0.0 0.0 0.00 0.20 0.00 92 1012.7
20260508045340 45 67 0.0 0.0 0.00 0.20 0.00 92 1012.8
20260508044840 44 67 0.0 0.0 0.00 0.20 0.00 92 1012.7
20260508044339 44 67 0.0 0.0 0.00 0.20 0.00 92 1012.5
20260508043839 44 45 0.0 0.0 0.00 0.20 0.00 92 1012.5
20260508043339 45 45 0.0 0.0 0.00 0.20 0.00 92 1012.5
20260508042838 44 45 0.0 0.0 0.00 0.20 0.00 92 1012.5
20260508042338 44 67 0.0 0.0 0.00 0.20 0.00 91 1012.6
20260508041838 44 45 0.0 0.0 0.00 0.20 0.00 91 1012.6
20260508041338 45 67 0.0 0.0 0.00 0.20 0.00 91 1012.5
20260508040837 45 67 0.0 0.0 0.00 0.20 0.00 91 1012.5
20260508040337 45 67 0.0 0.0 0.00 0.20 0.00 91 1012.5
20260508035837 45 67 0.0 0.0 0.00 0.30 0.00 92 1012.5
20260508035336 45 67 0.0 0.0 0.00 0.30 0.00 92 1012.4
20260508034836 45 67 0.0 0.0 0.00 0.30 0.00 92 1012.3
20260508034336 45 67 0.0 0.0 0.00 0.30 0.00 92 1012.3
20260508033836 44 67 0.0 0.0 0.00 0.30 0.00 92 1012.4
20260508033335 45 67 0.0 0.0 0.00 0.30 0.00 92 1012.3
20260508032835 45 67 0.0 0.0 0.00 0.30 0.00 92 1012.2
20260508032335 45 67 0.0 0.0 0.00 0.30 0.00 92 1012.2
20260508031834 45 67 0.0 0.0 0.00 0.30 0.00 92 1012.2
20260508031334 45 67 0.0 0.0 0.00 0.30 0.00 92 1012.4
20260508030834 45 67 0.0 0.0 0.00 0.30 0.00 92 1012.3
20260508030334 45 67 0.0 0.0 0.00 0.30 0.00 92 1012.2
20260508025833 45 67 0.0 0.0 0.00 0.32 0.00 92 1012.2
20260508025333 45 67 0.0 0.0 0.00 0.32 0.00 92 1012.2
20260508024833 45 67 0.0 0.0 0.00 0.32 0.00 92 1012.3